Location: Escondida
(34.1015°N, 106.8964°W)
Time: 14:18:16
(UTC+00:00)

Tiangong - Pass Details

Date: 11 December 2025
Orbit: 378 x 393 km, 41.5° (Epoch: 19 January)

Event Time Altitude Azimuth Distance (km) Brightness Sun altitude
Exits shadow 12:26:14 57° 195° (SSW) 464 -1.8 -19.5°
Drops below altitude 10° 12:29:13 10° 130° (SE) 1,418 1.7 -18.9°
Sets 12:31:20 0° 126° (SE) 2,278 3.1 -18.5°
